Search for airport 
image banner adimage banner adimage banner ad
image banner ad

6PN5 - Sam's Field

Located in Bradford, United States

ICAO - 6PN5, IATA -

Data provided by Airmate  

General information

Coordinates: N41°54'27" W78°37'44"
Elevation is 1540 feet MSL.
Magnetic variation is -10° East
View others Airports in Pennsylvania

Operational data

Special qualification required
Current time UTC:
Current local time:
Weather at : KBFD - Bradford Rgnl ( 12 km )
METAR: KBFD 212353Z AUTO 14008KT 10SM FEW016 18/14 A3019 RMK AO2 SLP215 T01830139 10211 20183 58000
TAF: KBFD 212332Z 2200/2224 15007KT P6SM VCSH SCT020 BKN040 FM220400 15010G15KT P6SM VCSH SCT010 OVC020 WS020/17037KT FM221100 15012G19KT 5SM -RA OVC008 WS020/17038KT FM221800 15011G20KT P6SM OVC015 WS020/17039KT
View NOTAMs / SUP AIP / TFR affecting this airport [VIEW]
Communications frequencies: [VIEW]

Runways:

RWY identifierQFULength (ft)Width (ft)SurfaceLDA (ft)
091300100GRASS
271300100GRASS

Airport contact information

Address: Bradford United States

Satellite view of 6PN5